Overview Statistics Trail Chart Weather Telemetry Raw packets
 

This is the latest recevied weather packets stored in our database for station/object OK1TBM-13. If no packets are shown the sender has not sent any weather packets the latest 10 day(s).

<< 10 11 12 13 14 15 16 >>
Time Temp. Humidity Pressure Rain* Wind** Luminosity Snow
1788586802 13.89° C 97% 1016.3 hPa 0 mm - 54 W/m² -
1788586501 13.89° C 96% 1016.3 hPa 0 mm - 20 W/m² -
1788586201 13.89° C 96% 1016.3 hPa 0 mm - 30 W/m² -
1788585602 13.89° C 95% 1015.2 hPa 0 mm - 26 W/m² -
1788585301 14.44° C 94% 1014.9 hPa 0 mm - 27 W/m² -
1788585005 13.89° C 95% 1014.9 hPa 0 mm - 11 W/m² -
1788584700 14.44° C 95% 1014.9 hPa 1.27 mm - 7 W/m² -
1788584400 14.44° C 96% 1015.2 hPa 1.27 mm - 12 W/m² -
1788584101 14.44° C 96% 1015.2 hPa 1.27 mm - 6 W/m² -
1788583801 14.44° C 95% 1015.2 hPa 1.27 mm - 3 W/m² -
1788583501 15° C 96% 1015.2 hPa 3.81 mm - 5 W/m² -
1788582901 15.56° C 99% 1015.2 hPa 3.81 mm - 1 W/m² -
1788582601 15.56° C 99% 1015.2 hPa 3.81 mm - 0 W/m² -
1788582302 15.56° C 99% 1014.6 hPa 1.27 mm - 0 W/m² -
1788582002 15.56° C 98% 1014.6 hPa 0 mm - 0 W/m² -
1788581701 15.56° C 98% 1014.6 hPa 1.27 mm - 0 W/m² -
1788581407 15.56° C 99% 1014.6 hPa 1.27 mm - 0 W/m² -
1788581101 15.56° C 99% 1014.6 hPa 0 mm - 0 W/m² -
1788580801 15.56° C 99% 1015.2 hPa 1.27 mm - 0 W/m² -
1788580501 15.56° C 99% 1015.2 hPa 2.54 mm - 0 W/m² -
1788580201 15.56° C 99% 1014.6 hPa 1.27 mm - 0 W/m² -
1788579907 15.56° C 99% 1014.6 hPa 0 mm - 0 W/m² -
1788579601 15.56° C 99% 1014.2 hPa 0 mm - 0 W/m² -
1788579301 15.56° C 99% 1014.2 hPa 0 mm - 0 W/m² -
1788579001 15.56° C 99% 1014.2 hPa 0 mm - 0 W/m² -

* Rain latest hour (hover to see other rain measurements)
** Current wind speed in m/s (hover to see current wind gust speed)